| time (UTC) | temp F | wind direction | speed knots | gust knots | rain 1hr in | rain 24hr in | rain mn in | humidity % | barometer mb |
| 20260901150306 | 91 | 245 | 1.7 | 2.6 | 0.00 | 0.00 | 0.00 | 63 | 1018.2 |
| 20260901145803 | 90 | 237 | 0.0 | 0.9 | 0.00 | 0.00 | 0.00 | 61 | 1018.2 |
| 20260901145257 | 89 | 278 | 0.9 | 1.7 | 0.00 | 0.00 | 0.00 | 65 | 1018.5 |
| 20260901144753 | 89 | 348 | 1.7 | 1.7 | 0.00 | 0.00 | 0.00 | 65 | 1018.5 |
| 20260901144248 | 89 | 193 | 2.6 | 2.6 | 0.00 | 0.00 | 0.00 | 65 | 1018.5 |
| 20260901143744 | 89 | 203 | 0.0 | 0.0 | 0.00 | 0.00 | 0.00 | 66 | 1018.5 |
| 20260901143240 | 89 | 273 | 0.9 | 0.9 | 0.00 | 0.00 | 0.00 | 66 | 1018.5 |
| 20260901142736 | 88 | 241 | 0.9 | 0.9 | 0.00 | 0.00 | 0.00 | 67 | 1018.9 |
| 20260901142235 | 87 | 214 | 0.0 | 0.9 | 0.00 | 0.00 | 0.00 | 70 | 1018.9 |
| 20260901141731 | 87 | 216 | 0.0 | 0.9 | 0.00 | 0.00 | 0.00 | 71 | 1018.5 |
| 20260901141231 | 87 | 241 | 0.9 | 0.9 | 0.00 | 0.00 | 0.00 | 71 | 1018.9 |
| 20260901140730 | 86 | 191 | 0.9 | 1.7 | 0.00 | 0.00 | 0.00 | 73 | 1018.5 |
| 20260901140228 | 85 | 207 | 0.9 | 1.7 | 0.00 | 0.00 | 0.00 | 75 | 1018.9 |
| 20260901135723 | 84 | 240 | 0.9 | 0.9 | 0.00 | 0.00 | 0.00 | 76 | 1018.5 |
| 20260901135218 | 84 | 205 | 0.9 | 0.9 | 0.00 | 0.00 | 0.00 | 78 | 1018.5 |
| 20260901134714 | 84 | 210 | 0.0 | 0.9 | 0.00 | 0.00 | 0.00 | 77 | 1018.5 |
| 20260901134209 | 84 | 192 | 0.9 | 0.9 | 0.00 | 0.00 | 0.00 | 78 | 1018.9 |
| 20260901133708 | 84 | 223 | 0.0 | 0.9 | 0.00 | 0.00 | 0.00 | 78 | 1018.5 |
| 20260901133207 | 82 | 181 | 0.0 | 0.0 | 0.00 | 0.00 | 0.00 | 81 | 1018.5 |
| 20260901132706 | 82 | 195 | 0.0 | 0.0 | 0.00 | 0.00 | 0.00 | 83 | 1018.5 |
| 20260901132206 | 81 | 173 | 1.7 | 1.7 | 0.00 | 0.00 | 0.00 | 83 | 1018.5 |
| 20260901131701 | 81 | 200 | 0.9 | 0.9 | 0.00 | 0.00 | 0.00 | 85 | 1018.5 |
| 20260901131200 | 81 | 205 | 0.0 | 0.9 | 0.00 | 0.00 | 0.00 | 85 | 1018.5 |
| 20260901130656 | 79 | 184 | 0.9 | 0.9 | 0.00 | 0.00 | 0.00 | 88 | 1018.5 |
| 20260901130154 | 78 | 202 | 0.9 | 1.7 | 0.00 | 0.00 | 0.00 | 90 | 1018.2 |
| 20260901125653 | 78 | 218 | 0.0 | 0.0 | 0.00 | 0.00 | 0.00 | 92 | 1018.2 |
| 20260901125148 | 77 | 255 | 0.0 | 0.0 | 0.00 | 0.00 | 0.00 | 92 | 1018.2 |
| 20260901124643 | 77 | 239 | 0.0 | 0.0 | 0.00 | 0.00 | 0.00 | 93 | 1018.2 |
| 20260901124143 | 77 | 249 | 0.0 | 0.0 | 0.00 | 0.00 | 0.00 | 93 | 1017.9 |
| 20260901123637 | 76 | 254 | 0.0 | 0.0 | 0.00 | 0.00 | 0.00 | 93 | 1017.9 |
| 20260901123137 | 76 | 253 | 0.0 | 0.0 | 0.00 | 0.00 | 0.00 | 93 | 1017.9 |
| 20260901122636 | 76 | 254 | 0.0 | 0.0 | 0.00 | 0.00 | 0.00 | 93 | 1017.9 |
| 20260901122131 | 76 | 255 | 0.0 | 0.0 | 0.00 | 0.00 | 0.00 | 93 | 1017.9 |
| 20260901121625 | 76 | 256 | 0.0 | 0.0 | 0.00 | 0.00 | 0.00 | 93 | 1017.9 |
| 20260901121121 | 76 | 256 | 0.0 | 0.0 | 0.00 | 0.00 | 0.00 | 92 | 1017.9 |
| 20260901120615 | 76 | 248 | 0.0 | 0.0 | 0.00 | 0.00 | 0.00 | 92 | 1017.5 |
| 20260901120110 | 77 | 246 | 0.0 | 0.0 | 0.00 | 0.00 | 0.00 | 92 | 1017.5 |
| 20260901115605 | 76 | 264 | 0.0 | 0.0 | 0.00 | 0.00 | 0.00 | 92 | 1017.9 |
| 20260901115102 | 77 | 265 | 0.0 | 0.0 | 0.00 | 0.00 | 0.00 | 91 | 1017.9 |
| 20260901114558 | 77 | 265 | 0.0 | 0.0 | 0.00 | 0.00 | 0.00 | 91 | 1017.9 |
| 20260901114057 | 77 | 249 | 0.0 | 0.0 | 0.00 | 0.00 | 0.00 | 91 | 1017.2 |
| 20260901113555 | 77 | 256 | 0.0 | 0.0 | 0.00 | 0.00 | 0.00 | 90 | 1017.9 |
| 20260901113051 | 77 | 260 | 0.0 | 0.0 | 0.00 | 0.00 | 0.00 | 90 | 1017.5 |
| 20260901112551 | 77 | 263 | 0.0 | 0.0 | 0.00 | 0.00 | 0.00 | 90 | 1017.5 |
| 20260901112046 | 77 | 255 | 0.0 | 0.0 | 0.00 | 0.00 | 0.00 | 89 | 1017.5 |
| 20260901111544 | 78 | 257 | 0.0 | 0.0 | 0.00 | 0.00 | 0.00 | 89 | 1017.5 |
| 20260901111043 | 78 | 257 | 0.0 | 0.0 | 0.00 | 0.00 | 0.00 | 89 | 1017.5 |
| 20260901110539 | 78 | 248 | 0.0 | 0.0 | 0.00 | 0.00 | 0.00 | 88 | 1017.5 |
| 20260901110035 | 78 | 257 | 0.0 | 0.0 | 0.00 | 0.00 | 0.00 | 88 | 1017.5 |
| 20260901105531 | 79 | 245 | 0.0 | 0.0 | 0.00 | 0.00 | 0.00 | 88 | 1017.5 |
| 20260901105030 | 79 | 252 | 0.9 | 0.9 | 0.00 | 0.00 | 0.00 | 88 | 1017.9 |
| 20260901104526 | 79 | 226 | 0.9 | 1.7 | 0.00 | 0.00 | 0.00 | 88 | 1017.9 |
| 20260901104022 | 79 | 201 | 1.7 | 1.7 | 0.00 | 0.00 | 0.00 | 88 | 1017.5 |
| 20260901103516 | 79 | 231 | 0.0 | 0.9 | 0.00 | 0.00 | 0.00 | 88 | 1017.5 |
| 20260901103012 | 79 | 254 | 0.0 | 0.0 | 0.00 | 0.00 | 0.00 | 88 | 1017.5 |
| 20260901102512 | 79 | 239 | 0.9 | 0.9 | 0.00 | 0.00 | 0.00 | 88 | 1017.2 |
| 20260901102006 | 79 | 245 | 0.0 | 0.9 | 0.00 | 0.00 | 0.00 | 87 | 1017.2 |
| 20260901101502 | 79 | 196 | 0.9 | 0.9 | 0.00 | 0.00 | 0.00 | 87 | 1017.2 |
| 20260901101001 | 79 | 204 | 0.9 | 1.7 | 0.00 | 0.00 | 0.00 | 87 | 1017.2 |
| 20260901100456 | 79 | 251 | 0.0 | 0.0 | 0.00 | 0.00 | 0.00 | 86 | 1017.2 |
| 20260901095955 | 79 | 251 | 0.0 | 0.0 | 0.00 | 0.00 | 0.00 | 86 | 1017.5 |
| 20260901095454 | 79 | 265 | 0.9 | 0.9 | 0.00 | 0.00 | 0.00 | 86 | 1017.5 |
| 20260901094952 | 79 | 262 | 0.0 | 0.0 | 0.00 | 0.00 | 0.00 | 85 | 1017.5 |
| 20260901094447 | 79 | 227 | 0.9 | 0.9 | 0.00 | 0.00 | 0.00 | 85 | 1017.5 |
| 20260901093946 | 79 | 245 | 0.0 | 0.0 | 0.00 | 0.00 | 0.00 | 85 | 1017.5 |
| 20260901093441 | 79 | 252 | 0.9 | 0.9 | 0.00 | 0.00 | 0.00 | 85 | 1017.5 |
| 20260901092942 | 79 | 223 | 0.9 | 0.9 | 0.00 | 0.00 | 0.00 | 84 | 1017.5 |
| 20260901092438 | 79 | 205 | 0.9 | 0.9 | 0.00 | 0.00 | 0.00 | 85 | 1017.5 |
| 20260901091933 | 79 | 215 | 0.0 | 0.9 | 0.00 | 0.00 | 0.00 | 85 | 1017.5 |
| 20260901091428 | 79 | 197 | 0.9 | 0.9 | 0.00 | 0.00 | 0.00 | 85 | 1017.5 |
| 20260901090923 | 79 | 239 | 0.9 | 0.9 | 0.00 | 0.00 | 0.00 | 84 | 1017.5 |
| 20260901090422 | 79 | 221 | 0.0 | 0.0 | 0.00 | 0.00 | 0.00 | 84 | 1017.5 |
| 20260901085919 | 79 | 226 | 0.0 | 0.0 | 0.00 | 0.00 | 0.00 | 84 | 1017.5 |
| 20260901085414 | 79 | 238 | 0.0 | 0.0 | 0.00 | 0.00 | 0.00 | 84 | 1017.5 |
| 20260901084910 | 79 | 227 | 0.0 | 0.0 | 0.00 | 0.00 | 0.00 | 84 | 1017.5 |
| 20260901084406 | 79 | 218 | 0.0 | 0.9 | 0.00 | 0.00 | 0.00 | 83 | 1017.9 |
| 20260901083901 | 80 | 234 | 0.0 | 0.0 | 0.00 | 0.00 | 0.00 | 83 | 1017.5 |
| 20260901083356 | 80 | 244 | 0.0 | 0.9 | 0.00 | 0.00 | 0.00 | 82 | 1017.9 |
| 20260901082854 | 80 | 231 | 0.0 | 0.0 | 0.00 | 0.00 | 0.00 | 82 | 1017.5 |
| 20260901082349 | 80 | 244 | 0.0 | 0.0 | 0.00 | 0.00 | 0.00 | 81 | 1017.5 |
| 20260901081844 | 81 | 260 | 0.0 | 0.0 | 0.00 | 0.00 | 0.00 | 80 | 1017.5 |
| 20260901081340 | 81 | 212 | 0.9 | 0.9 | 0.00 | 0.00 | 0.00 | 80 | 1017.5 |
| 20260901080839 | 81 | 219 | 0.9 | 0.9 | 0.00 | 0.00 | 0.00 | 80 | 1017.9 |
| 20260901080334 | 81 | 233 | 0.9 | 0.9 | 0.00 | 0.00 | 0.00 | 80 | 1017.5 |
| 20260901075828 | 81 | 205 | 1.7 | 1.7 | 0.00 | 0.00 | 0.00 | 80 | 1017.5 |
| 20260901075323 | 81 | 212 | 1.7 | 1.7 | 0.00 | 0.00 | 0.00 | 79 | 1017.9 |
| 20260901074819 | 81 | 243 | 0.0 | 0.0 | 0.00 | 0.00 | 0.00 | 79 | 1017.5 |
| 20260901074313 | 81 | 232 | 0.9 | 1.7 | 0.00 | 0.00 | 0.00 | 79 | 1017.5 |
| 20260901073808 | 81 | 259 | 0.0 | 0.0 | 0.00 | 0.00 | 0.00 | 79 | 1017.5 |
| 20260901073304 | 81 | 219 | 0.0 | 0.0 | 0.00 | 0.00 | 0.00 | 78 | 1017.9 |
| 20260901072800 | 81 | 237 | 0.9 | 0.9 | 0.00 | 0.00 | 0.00 | 78 | 1017.5 |
| 20260901072259 | 82 | 243 | 0.9 | 0.9 | 0.00 | 0.00 | 0.00 | 77 | 1017.9 |
| 20260901071754 | 82 | 231 | 0.0 | 0.0 | 0.00 | 0.00 | 0.00 | 77 | 1017.5 |
| 20260901071253 | 82 | 229 | 0.0 | 0.9 | 0.00 | 0.00 | 0.00 | 76 | 1017.9 |
| 20260901070752 | 82 | 300 | 0.9 | 0.9 | 0.00 | 0.00 | 0.00 | 76 | 1017.9 |
| 20260901070248 | 82 | 210 | 1.7 | 1.7 | 0.00 | 0.00 | 0.00 | 75 | 1017.5 |
| 20260901065747 | 82 | 204 | 0.9 | 1.7 | 0.00 | 0.00 | 0.00 | 75 | 1017.5 |
| 20260901065243 | 82 | 149 | 1.7 | 1.7 | 0.00 | 0.00 | 0.00 | 75 | 1017.5 |
| 20260901064739 | 83 | 274 | 0.9 | 0.9 | 0.00 | 0.00 | 0.00 | 74 | 1017.5 |
| 20260901064235 | 83 | 240 | 0.9 | 0.9 | 0.00 | 0.00 | 0.00 | 74 | 1017.5 |
| 20260901063732 | 83 | 244 | 0.9 | 0.9 | 0.00 | 0.00 | 0.00 | 73 | 1017.5 |
| 20260901063227 | 83 | 245 | 0.9 | 0.9 | 0.00 | 0.00 | 0.00 | 73 | 1017.5 |
| 20260901062724 | 83 | 239 | 0.9 | 0.9 | 0.00 | 0.00 | 0.00 | 73 | 1017.5 |
| 20260901062219 | 83 | 225 | 1.7 | 1.7 | 0.00 | 0.00 | 0.00 | 72 | 1017.5 |
| 20260901061715 | 83 | 231 | 1.7 | 1.7 | 0.00 | 0.00 | 0.00 | 72 | 1017.2 |
| 20260901061214 | 84 | 264 | 1.7 | 2.6 | 0.00 | 0.00 | 0.00 | 72 | 1017.2 |
| 20260901060709 | 84 | 227 | 0.9 | 0.9 | 0.00 | 0.00 | 0.00 | 72 | 1017.2 |
| 20260901060205 | 83 | 242 | 0.0 | 0.9 | 0.00 | 0.00 | 0.00 | 73 | 1017.2 |
| 20260901055700 | 83 | 207 | 1.7 | 1.7 | 0.00 | 0.00 | 0.00 | 73 | 1017.2 |
| 20260901055157 | 84 | 208 | 0.0 | 0.9 | 0.00 | 0.00 | 0.00 | 72 | 1017.2 |
| 20260901054654 | 84 | 233 | 0.9 | 1.7 | 0.00 | 0.00 | 0.00 | 71 | 1017.2 |
| 20260901054149 | 84 | 228 | 0.9 | 0.9 | 0.00 | 0.00 | 0.00 | 71 | 1017.2 |
| 20260901053645 | 84 | 165 | 1.7 | 1.7 | 0.00 | 0.00 | 0.00 | 71 | 1017.5 |
| 20260901053141 | 84 | 205 | 0.0 | 0.0 | 0.00 | 0.00 | 0.00 | 70 | 1017.2 |
| 20260901052636 | 84 | 247 | 0.0 | 0.9 | 0.00 | 0.00 | 0.00 | 70 | 1017.5 |
| 20260901052131 | 84 | 227 | 0.9 | 0.9 | 0.00 | 0.00 | 0.00 | 69 | 1017.2 |
| 20260901051631 | 85 | 193 | 2.6 | 2.6 | 0.00 | 0.00 | 0.00 | 68 | 1017.2 |
| 20260901051130 | 85 | 237 | 0.9 | 1.7 | 0.00 | 0.00 | 0.00 | 67 | 1017.2 |
| 20260901050625 | 85 | 244 | 1.7 | 2.6 | 0.00 | 0.00 | 0.00 | 66 | 1017.2 |
| 20260901050121 | 85 | 207 | 2.6 | 4.3 | 0.00 | 0.00 | 0.00 | 65 | 1017.2 |
| 20260901045615 | 85 | 169 | 0.9 | 1.7 | 0.00 | 0.00 | 0.00 | 65 | 1016.9 |
| 20260901045110 | 85 | 212 | 0.9 | 1.7 | 0.00 | 0.00 | 0.00 | 64 | 1016.9 |
| 20260901044606 | 85 | 174 | 0.9 | 1.7 | 0.00 | 0.00 | 0.00 | 64 | 1017.2 |
| 20260901044101 | 85 | 235 | 1.7 | 2.6 | 0.00 | 0.00 | 0.00 | 63 | 1016.9 |
| 20260901043557 | 85 | 235 | 0.9 | 0.9 | 0.00 | 0.00 | 0.00 | 63 | 1016.9 |
| 20260901043052 | 85 | 236 | 0.0 | 0.9 | 0.00 | 0.00 | 0.00 | 63 | 1016.9 |
| 20260901042551 | 85 | 241 | 0.9 | 1.7 | 0.00 | 0.00 | 0.00 | 62 | 1016.9 |
| 20260901042047 | 86 | 205 | 0.9 | 0.9 | 0.00 | 0.00 | 0.00 | 62 | 1016.9 |
| 20260901041542 | 86 | 234 | 0.9 | 0.9 | 0.00 | 0.00 | 0.00 | 61 | 1016.5 |
| 20260901041037 | 86 | 99 | 0.9 | 1.7 | 0.00 | 0.00 | 0.00 | 61 | 1016.9 |
| 20260901040536 | 86 | 145 | 2.6 | 4.3 | 0.00 | 0.00 | 0.00 | 60 | 1016.9 |
| 20260901040031 | 86 | 225 | 0.9 | 0.9 | 0.00 | 0.00 | 0.00 | 59 | 1016.9 |
| 20260901035528 | 86 | 220 | 0.9 | 0.9 | 0.00 | 0.00 | 0.00 | 59 | 1016.9 |
| 20260901035027 | 87 | 207 | 1.7 | 1.7 | 0.00 | 0.00 | 0.00 | 58 | 1016.9 |
| 20260901034522 | 87 | 124 | 4.3 | 5.2 | 0.00 | 0.00 | 0.00 | 58 | 1016.5 |
| 20260901034017 | 87 | 141 | 0.9 | 1.7 | 0.00 | 0.00 | 0.00 | 57 | 1016.9 |
| 20260901033515 | 87 | 190 | 2.6 | 4.3 | 0.00 | 0.00 | 0.00 | 57 | 1016.5 |
| 20260901033010 | 87 | 226 | 0.9 | 0.9 | 0.00 | 0.00 | 0.00 | 56 | 1016.5 |
| 20260901032504 | 88 | 202 | 0.0 | 0.9 | 0.00 | 0.00 | 0.00 | 55 | 1016.5 |
| 20260901032003 | 88 | 171 | 0.0 | 0.9 | 0.00 | 0.00 | 0.00 | 55 | 1016.5 |
| 20260901031459 | 88 | 254 | 0.9 | 0.9 | 0.00 | 0.00 | 0.00 | 54 | 1016.5 |
| 20260901030954 | 88 | 151 | 4.3 | 4.3 | 0.00 | 0.00 | 0.00 | 53 | 1016.5 |
| 20260901030449 | 89 | 103 | 1.7 | 2.6 | 0.00 | 0.00 | 0.00 | 53 | 1016.2 |
| 20260901025948 | 89 | 142 | 0.9 | 0.9 | 0.00 | 0.00 | 0.00 | 52 | 1016.2 |
| 20260901025444 | 89 | 148 | 3.5 | 5.2 | 0.00 | 0.00 | 0.00 | 52 | 1016.2 |
| 20260901024943 | 89 | 141 | 0.9 | 0.9 | 0.00 | 0.00 | 0.00 | 51 | 1016.2 |
| 20260901024438 | 89 | 186 | 0.9 | 1.7 | 0.00 | 0.00 | 0.00 | 50 | 1016.2 |
| 20260901023936 | 89 | 189 | 1.7 | 1.7 | 0.00 | 0.00 | 0.00 | 49 | 1015.8 |
| 20260901023431 | 89 | 224 | 0.0 | 0.9 | 0.00 | 0.00 | 0.00 | 47 | 1015.8 |
| 20260901022926 | 90 | 161 | 1.7 | 1.7 | 0.00 | 0.00 | 0.00 | 47 | 1015.5 |
| 20260901022422 | 90 | 94 | 2.6 | 2.6 | 0.00 | 0.00 | 0.00 | 46 | 1015.5 |
| 20260901021916 | 90 | 202 | 1.7 | 1.7 | 0.00 | 0.00 | 0.00 | 46 | 1015.5 |
| 20260901021412 | 90 | 199 | 2.6 | 2.6 | 0.00 | 0.00 | 0.00 | 45 | 1015.5 |
| 20260901020907 | 90 | 157 | 2.6 | 2.6 | 0.00 | 0.00 | 0.00 | 45 | 1015.5 |
| 20260901020403 | 90 | 127 | 0.9 | 0.9 | 0.00 | 0.00 | 0.00 | 45 | 1015.5 |
| 20260901015902 | 91 | 241 | 0.0 | 0.0 | 0.00 | 0.00 | 0.00 | 45 | 1015.2 |
| 20260901015358 | 91 | 244 | 0.0 | 0.9 | 0.00 | 0.00 | 0.00 | 44 | 1015.2 |
| 20260901014857 | 91 | 92 | 0.9 | 1.7 | 0.00 | 0.00 | 0.00 | 43 | 1015.2 |
| 20260901014354 | 92 | 223 | 0.9 | 0.9 | 0.00 | 0.00 | 0.00 | 43 | 1015.2 |
| 20260901013849 | 92 | 188 | 0.0 | 0.0 | 0.00 | 0.00 | 0.00 | 43 | 1014.8 |
| 20260901013345 | 92 | 169 | 0.9 | 1.7 | 0.00 | 0.00 | 0.00 | 42 | 1014.8 |
| 20260901012840 | 92 | 198 | 0.0 | 0.0 | 0.00 | 0.00 | 0.00 | 42 | 1014.8 |
| 20260901012335 | 93 | 239 | 0.9 | 0.9 | 0.00 | 0.00 | 0.00 | 41 | 1014.8 |
| 20260901011831 | 93 | 126 | 1.7 | 1.7 | 0.00 | 0.00 | 0.00 | 40 | 1014.8 |
| 20260901011326 | 93 | 190 | 0.0 | 0.0 | 0.00 | 0.00 | 0.00 | 40 | 1014.8 |
| 20260901010819 | 93 | 119 | 0.9 | 0.9 | 0.00 | 0.00 | 0.00 | 40 | 1014.5 |
| 20260901010314 | 94 | 224 | 0.0 | 0.0 | 0.00 | 0.00 | 0.00 | 40 | 1014.5 |
| 20260901005813 | 94 | 190 | 1.7 | 2.6 | 0.00 | 0.00 | 0.00 | 39 | 1014.5 |
| 20260901005308 | 94 | 233 | 0.0 | 0.9 | 0.00 | 0.00 | 0.00 | 39 | 1014.5 |
| 20260901004803 | 95 | 199 | 1.7 | 1.7 | 0.00 | 0.00 | 0.00 | 39 | 1014.5 |
| 20260901004257 | 95 | 173 | 0.0 | 0.0 | 0.00 | 0.00 | 0.00 | 38 | 1014.5 |
| 20260901003756 | 95 | 139 | 0.9 | 1.7 | 0.00 | 0.00 | 0.00 | 38 | 1014.5 |
| 20260901003251 | 95 | 235 | 0.0 | 0.0 | 0.00 | 0.00 | 0.00 | 38 | 1014.5 |
| 20260901002744 | 96 | 146 | 0.0 | 0.9 | 0.00 | 0.00 | 0.00 | 38 | 1014.5 |
| 20260901002240 | 96 | 153 | 1.7 | 1.7 | 0.00 | 0.00 | 0.00 | 37 | 1014.5 |
| 20260901001735 | 96 | 160 | 0.0 | 0.9 | 0.00 | 0.00 | 0.00 | 37 | 1014.8 |
| 20260901001230 | 96 | 146 | 0.9 | 1.7 | 0.00 | 0.00 | 0.00 | 37 | 1014.5 |
| 20260901000725 | 97 | 175 | 0.0 | 0.9 | 0.00 | 0.00 | 0.00 | 37 | 1014.5 |
| 20260901000220 | 97 | 173 | 2.6 | 2.6 | 0.00 | 0.00 | 0.00 | 36 | 1014.5 |
| 20260831235714 | 97 | 257 | 1.7 | 1.7 | 0.00 | 0.00 | 0.00 | 36 | 1014.5 |
| 20260831235210 | 97 | 207 | 0.9 | 1.7 | 0.00 | 0.00 | 0.00 | 35 | 1014.5 |
| 20260831234709 | 98 | 141 | 2.6 | 2.6 | 0.00 | 0.00 | 0.00 | 35 | 1014.5 |
| 20260831234204 | 98 | 163 | 1.7 | 1.7 | 0.00 | 0.00 | 0.00 | 35 | 1014.1 |
| 20260831233659 | 98 | 123 | 2.6 | 6.1 | 0.00 | 0.00 | 0.00 | 35 | 1014.5 |
| 20260831233154 | 98 | 281 | 0.9 | 1.7 | 0.00 | 0.00 | 0.00 | 34 | 1014.5 |
| 20260831232649 | 99 | 196 | 2.6 | 4.3 | 0.00 | 0.00 | 0.00 | 34 | 1014.1 |
| 20260831232146 | 99 | 190 | 2.6 | 2.6 | 0.00 | 0.00 | 0.00 | 35 | 1014.5 |
| 20260831231642 | 99 | 200 | 1.7 | 1.7 | 0.00 | 0.00 | 0.00 | 35 | 1014.5 |
| 20260831231137 | 99 | 259 | 1.7 | 2.6 | 0.00 | 0.00 | 0.00 | 35 | 1014.5 |
| 20260831230632 | 99 | 106 | 2.6 | 5.2 | 0.00 | 0.00 | 0.00 | 35 | 1014.5 |
| 20260831230127 | 100 | 127 | 2.6 | 4.3 | 0.00 | 0.00 | 0.00 | 35 | 1014.5 |
| 20260831225621 | 100 | 228 | 3.5 | 5.2 | 0.00 | 0.00 | 0.00 | 35 | 1014.5 |
| 20260831225116 | 100 | 111 | 1.7 | 2.6 | 0.00 | 0.00 | 0.00 | 35 | 1014.5 |
| 20260831224606 | 98 | 152 | 0.9 | 1.7 | 0.00 | 0.00 | 0.00 | 36 | 1014.5 |
| 20260831224101 | 98 | 115 | 1.7 | 2.6 | 0.00 | 0.00 | 0.00 | 36 | 1014.8 |
| 20260831223557 | 98 | 185 | 0.9 | 1.7 | 0.00 | 0.00 | 0.00 | 37 | 1014.8 |
| 20260831223053 | 99 | 130 | 2.6 | 4.3 | 0.00 | 0.00 | 0.00 | 36 | 1014.8 |
| 20260831222549 | 100 | 143 | 3.5 | 6.1 | 0.00 | 0.00 | 0.00 | 36 | 1014.8 |
| 20260831222048 | 101 | 152 | 3.5 | 5.2 | 0.00 | 0.00 | 0.00 | 35 | 1014.8 |
| 20260831221544 | 101 | 262 | 0.0 | 0.9 | 0.00 | 0.00 | 0.00 | 35 | 1014.8 |
| 20260831221039 | 100 | 281 | 0.0 | 0.0 | 0.00 | 0.00 | 0.00 | 36 | 1014.8 |
| 20260831220534 | 101 | 58 | 0.9 | 1.7 | 0.00 | 0.00 | 0.00 | 36 | 1014.8 |
| 20260831220030 | 100 | 314 | 0.0 | 0.9 | 0.00 | 0.00 | 0.00 | 36 | 1014.8 |
| 20260831215525 | 100 | 132 | 1.7 | 2.6 | 0.00 | 0.00 | 0.00 | 37 | 1014.5 |
| 20260831215021 | 101 | 71 | 2.6 | 2.6 | 0.00 | 0.00 | 0.00 | 36 | 1014.8 |
| 20260831214518 | 101 | 167 | 5.2 | 7.0 | 0.00 | 0.00 | 0.00 | 36 | 1014.8 |
| 20260831214014 | 100 | 277 | 2.6 | 2.6 | 0.00 | 0.00 | 0.00 | 36 | 1014.8 |
| 20260831213510 | 100 | 202 | 2.6 | 4.3 | 0.00 | 0.00 | 0.00 | 36 | 1015.2 |
| 20260831213010 | 100 | 236 | 3.5 | 4.3 | 0.00 | 0.00 | 0.00 | 36 | 1015.2 |
| 20260831212506 | 100 | 197 | 0.9 | 0.9 | 0.00 | 0.00 | 0.00 | 37 | 1015.2 |
| 20260831212001 | 100 | 146 | 2.6 | 2.6 | 0.00 | 0.00 | 0.00 | 37 | 1015.2 |
| 20260831211456 | 100 | 158 | 2.6 | 4.3 | 0.00 | 0.00 | 0.00 | 37 | 1015.2 |
| 20260831210955 | 100 | 150 | 2.6 | 2.6 | 0.00 | 0.00 | 0.00 | 36 | 1015.2 |
| 20260831210450 | 101 | 207 | 5.2 | 6.1 | 0.00 | 0.00 | 0.00 | 37 | 1015.2 |
| 20260831205946 | 101 | 256 | 2.6 | 4.3 | 0.00 | 0.00 | 0.00 | 37 | 1015.5 |
| 20260831205441 | 101 | 146 | 3.5 | 6.1 | 0.00 | 0.00 | 0.00 | 36 | 1015.5 |
| 20260831204937 | 100 | 206 | 2.6 | 4.3 | 0.00 | 0.00 | 0.00 | 37 | 1015.5 |
| 20260831204436 | 100 | 84 | 2.6 | 6.1 | 0.00 | 0.00 | 0.00 | 37 | 1016.2 |
| 20260831203930 | 99 | 203 | 2.6 | 2.6 | 0.00 | 0.00 | 0.00 | 37 | 1016.2 |
| 20260831203424 | 99 | 170 | 4.3 | 6.1 | 0.00 | 0.00 | 0.00 | 38 | 1016.2 |
| 20260831202922 | 100 | 152 | 2.6 | 4.3 | 0.00 | 0.00 | 0.00 | 37 | 1016.2 |
| 20260831202418 | 98 | 204 | 2.6 | 4.3 | 0.00 | 0.00 | 0.00 | 39 | 1016.2 |
| 20260831201912 | 98 | 261 | 2.6 | 4.3 | 0.00 | 0.00 | 0.00 | 41 | 1016.2 |
| 20260831201411 | 98 | 123 | 0.9 | 1.7 | 0.00 | 0.00 | 0.00 | 42 | 1016.2 |
| 20260831200907 | 97 | 171 | 0.9 | 0.9 | 0.00 | 0.00 | 0.00 | 42 | 1016.5 |
| 20260831200402 | 97 | 277 | 1.7 | 1.7 | 0.00 | 0.00 | 0.00 | 42 | 1016.5 |
| 20260831195856 | 98 | 144 | 2.6 | 4.3 | 0.00 | 0.00 | 0.00 | 41 | 1016.5 |
| 20260831195352 | 96 | 270 | 0.9 | 0.9 | 0.00 | 0.00 | 0.00 | 42 | 1016.5 |
| 20260831194847 | 97 | 181 | 2.6 | 2.6 | 0.00 | 0.00 | 0.00 | 43 | 1016.5 |
| 20260831194343 | 96 | 165 | 0.9 | 1.7 | 0.00 | 0.00 | 0.00 | 43 | 1016.9 |
| 20260831193842 | 99 | 141 | 0.9 | 0.9 | 0.00 | 0.00 | 0.00 | 42 | 1016.9 |
| 20260831193337 | 99 | 232 | 1.7 | 2.6 | 0.00 | 0.00 | 0.00 | 40 | 1017.2 |
| 20260831192832 | 100 | 180 | 1.7 | 4.3 | 0.00 | 0.00 | 0.00 | 40 | 1017.2 |
| 20260831192332 | 99 | 267 | 1.7 | 1.7 | 0.00 | 0.00 | 0.00 | 40 | 1017.2 |
| 20260831191828 | 98 | 269 | 2.6 | 2.6 | 0.00 | 0.00 | 0.00 | 41 | 1017.2 |
| 20260831191324 | 98 | 146 | 1.7 | 6.1 | 0.00 | 0.00 | 0.00 | 41 | 1017.2 |
| 20260831190819 | 98 | 205 | 4.3 | 6.1 | 0.00 | 0.00 | 0.00 | 43 | 1017.2 |
| 20260831190314 | 99 | 207 | 2.6 | 2.6 | 0.00 | 0.00 | 0.00 | 42 | 1017.2 |
| 20260831185813 | 99 | 169 | 2.6 | 4.3 | 0.00 | 0.00 | 0.00 | 42 | 1017.5 |
| 20260831185309 | 98 | 204 | 0.0 | 0.9 | 0.00 | 0.00 | 0.00 | 43 | 1017.5 |
| 20260831184808 | 98 | 214 | 2.6 | 4.3 | 0.00 | 0.00 | 0.00 | 43 | 1017.5 |
| 20260831184304 | 98 | 235 | 1.7 | 1.7 | 0.00 | 0.00 | 0.00 | 43 | 1017.5 |
| 20260831183759 | 95 | 74 | 2.6 | 5.2 | 0.00 | 0.00 | 0.00 | 45 | 1017.9 |
| 20260831183258 | 95 | 143 | 4.3 | 6.1 | 0.00 | 0.00 | 0.00 | 46 | 1017.9 |
| 20260831182757 | 98 | 138 | 4.3 | 6.1 | 0.00 | 0.00 | 0.00 | 43 | 1017.9 |
| 20260831182253 | 96 | 77 | 1.7 | 1.7 | 0.00 | 0.00 | 0.00 | 46 | 1017.9 |
| 20260831181748 | 97 | 191 | 3.5 | 4.3 | 0.00 | 0.00 | 0.00 | 45 | 1018.2 |
| 20260831181243 | 96 | 108 | 1.7 | 1.7 | 0.00 | 0.00 | 0.00 | 46 | 1017.9 |
| 20260831180743 | 96 | 204 | 2.6 | 2.6 | 0.00 | 0.00 | 0.00 | 46 | 1017.9 |
| 20260831180238 | 96 | 312 | 1.7 | 1.7 | 0.00 | 0.00 | 0.00 | 47 | 1018.2 |
| 20260831175737 | 96 | 202 | 1.7 | 2.6 | 0.00 | 0.00 | 0.00 | 46 | 1018.2 |
| 20260831175234 | 95 | 277 | 1.7 | 1.7 | 0.00 | 0.00 | 0.00 | 47 | 1018.2 |
| 20260831174729 | 95 | 184 | 2.6 | 4.3 | 0.00 | 0.00 | 0.00 | 46 | 1018.2 |
| 20260831174224 | 96 | 195 | 1.7 | 2.6 | 0.00 | 0.00 | 0.00 | 47 | 1018.5 |
| 20260831173724 | 95 | 236 | 1.7 | 1.7 | 0.00 | 0.00 | 0.00 | 49 | 1018.5 |
| 20260831173218 | 95 | 218 | 4.3 | 6.1 | 0.00 | 0.00 | 0.00 | 47 | 1018.9 |
| 20260831172713 | 94 | 187 | 0.0 | 0.9 | 0.00 | 0.00 | 0.00 | 50 | 1018.9 |
| 20260831172208 | 94 | 242 | 3.5 | 4.3 | 0.00 | 0.00 | 0.00 | 51 | 1018.9 |
| 20260831171703 | 93 | 240 | 1.7 | 1.7 | 0.00 | 0.00 | 0.00 | 51 | 1018.9 |
| 20260831171200 | 91 | 277 | 0.9 | 0.9 | 0.00 | 0.00 | 0.00 | 55 | 1018.9 |
| 20260831170656 | 92 | 259 | 0.0 | 0.0 | 0.00 | 0.00 | 0.00 | 55 | 1018.5 |
| 20260831170153 | 92 | 251 | 2.6 | 5.2 | 0.00 | 0.00 | 0.00 | 54 | 1018.9 |
| 20260831165648 | 92 | 305 | 3.5 | 5.2 | 0.00 | 0.00 | 0.00 | 55 | 1018.9 |
| 20260831165145 | 92 | 231 | 0.9 | 1.7 | 0.00 | 0.00 | 0.00 | 55 | 1018.9 |
| 20260831164641 | 92 | 180 | 2.6 | 4.3 | 0.00 | 0.00 | 0.00 | 54 | 1018.9 |
| 20260831164136 | 92 | 222 | 2.6 | 4.3 | 0.00 | 0.00 | 0.00 | 55 | 1018.9 |
| 20260831163631 | 92 | 183 | 2.6 | 2.6 | 0.00 | 0.00 | 0.00 | 56 | 1019.3 |
| 20260831163127 | 91 | 181 | 3.5 | 4.3 | 0.00 | 0.00 | 0.00 | 59 | 1018.9 |
| 20260831162626 | 92 | 215 | 3.5 | 5.2 | 0.00 | 0.00 | 0.00 | 56 | 1018.9 |
| 20260831162124 | 90 | 183 | 2.6 | 2.6 | 0.00 | 0.00 | 0.00 | 59 | 1018.9 |
| 20260831161620 | 90 | 220 | 2.6 | 4.3 | 0.00 | 0.00 | 0.00 | 60 | 1018.9 |
| 20260831161117 | 89 | 235 | 1.7 | 2.6 | 0.00 | 0.00 | 0.00 | 62 | 1018.9 |
| 20260831160615 | 91 | 144 | 2.6 | 5.2 | 0.00 | 0.00 | 0.00 | 60 | 1019.3 |
| 20260831160111 | 90 | 158 | 2.6 | 2.6 | 0.00 | 0.00 | 0.00 | 61 | 1018.9 |
| 20260831155605 | 91 | 271 | 3.5 | 4.3 | 0.00 | 0.00 | 0.00 | 60 | 1019.3 |
| 20260831155101 | 90 | 213 | 2.6 | 2.6 | 0.00 | 0.00 | 0.00 | 60 | 1018.9 |
| 20260831154557 | 91 | 238 | 1.7 | 2.6 | 0.00 | 0.00 | 0.00 | 59 | 1018.9 |
| 20260831154056 | 89 | 223 | 2.6 | 2.6 | 0.00 | 0.00 | 0.00 | 60 | 1018.9 |
| 20260831153555 | 90 | 206 | 3.5 | 6.1 | 0.00 | 0.00 | 0.00 | 61 | 1018.9 |
| 20260831153053 | 89 | 221 | 0.9 | 0.9 | 0.00 | 0.00 | 0.00 | 65 | 1018.5 |
| 20260831152548 | 89 | 78 | 2.6 | 2.6 | 0.00 | 0.00 | 0.00 | 67 | 1018.9 |
| 20260831152043 | 89 | 265 | 0.9 | 0.9 | 0.00 | 0.00 | 0.00 | 65 | 1018.5 |
| 20260831151542 | 89 | 343 | 0.9 | 0.9 | 0.00 | 0.00 | 0.00 | 65 | 1018.9 |
| 20260831151037 | 86 | 142 | 0.9 | 1.7 | 0.00 | 0.00 | 0.00 | 70 | 1018.9 |
| 20260831150532 | 86 | 234 | 5.2 | 6.1 | 0.00 | 0.00 | 0.00 | 72 | 1018.5 |